Regional Weather Roundup
Issued by NWS

Home | Current Version | Previous Version | Text Only | Print | Product List | Glossary Off
Versions: 1 2 3 4 5 6 7 8 9 10 11 12 13 14 15 16 17 18 19 20 21 22 23 24 25 26 27 28 29 30 31 32 33 34 35 36 37 38 39 40 41 42 43 44 45 46 47 48 49 50

500
ASUS43 KTOP 230808
RWRKS

WEATHER ROUNDUP FOR KANSAS
NATIONAL WEATHER SERVICE GOODLAND KS
300 AM CDT MON OCT 23 2017

NOTE:  "FAIR" INDICATES FEW OR NO CLOUDS BELOW 12,000 FEET WITH NO
SIGNIFICANT WEATHER AND/OR OBSTRUCTIONS TO VISIBILITY.

KSZ001>006-013>018-027>032-041>047-230900-
NORTHWEST KANSAS

CITY           SKY/WX    TMP DP  RH WIND       PRES   REMARKS
GOODLAND       CLEAR     45  28  51 W12       30.07R
HAYS           PTCLDY    46  30  53 W6        30.00S
HILL CITY      CLEAR     47  31  53 W8        29.99F
RUSSELL        CLEAR     45  32  60 SW12      29.98R
$$

KSZ061>065-074>080-084>089-230900-
SOUTHWEST KANSAS

CITY           SKY/WX    TMP DP  RH WIND       PRES   REMARKS
DODGE CITY     CLEAR     52  31  44 SW12      30.02F
ELKHART          N/A     51  32  48 W9          N/A
GARDEN CITY    CLEAR     44  31  60 W7        30.04S
GREAT BEND     CLEAR     43  32  65 SW5       30.01F
LIBERAL        CLOUDY    41  34  76 SW7       30.05F
PRATT          CLEAR     43  33  66 SW8       30.02F
$$

KSZ066>073-081>083-090>101-230900-
SOUTHEAST KANSAS

CITY           SKY/WX    TMP DP  RH WIND       PRES   REMARKS
CHANUTE        CLEAR     45  39  79 S7        30.04F
COFFEYVILLE    CLEAR     44  41  89 S3        30.05F
HUTCHINSON     CLEAR     48  41  76 S7        30.01F
MEDICINE LODGE   N/A     44  39  82 CALM      30.04S
NEWTON         CLEAR     51  40  65 SW10      30.02F
PARSONS        CLEAR     41  40  96 CALM      30.06F
WICHITA INTL   PTCLDY    47  42  83 SW8       30.03S
WICHITA JABRA  CLEAR     53  40  61 S13       30.02F
WICHITA MCCONL CLEAR     47  40  75 SW9       30.03S
WINFIELD       CLEAR     47  42  83 S5        30.06F
$$

KSZ007>012-019>026-033>040-048>060-102>105-230900-
NORTHEAST KANSAS

CITY           SKY/WX    TMP DP  RH WIND       PRES   REMARKS
CONCORDIA      CLEAR     52  32  46 SW15      29.94F
EMPORIA        CLEAR     50  39  66 SW12      30.02S
LAWRENCE       CLEAR     44  41  89 E7        30.01F
MANHATTAN      CLEAR     45  40  82 CALM      29.99S
MARYSVILLE     CLEAR     48  36  61 S8        29.96F
OLATHE IND     CLEAR     43  40  89 S3        30.02F
OLATHE EXE     CLEAR     46  39  76 S6        30.01F
SALINA         CLEAR     51  41  68 S8        29.98F
TOPEKA BILLARD CLEAR     46  39  76 S3        30.00S
TOPEKA FORBES  CLEAR     47  39  74 S7        30.00S
$$




USA.gov is the U.S. government's official web portal to all federal, state and local government web resources and services.